| time (UTC) | temp F | wind direction | speed MPH | gust MPH | rain 1hr in | rain 24hr in | rain mn in | humidity % | barometer mb |
| 20260903102624 | 57 | 40 | 0.0 | 2.0 | 0.00 | 0.00 | 0.00 | 41 | 1013.3 |
| 20260903101638 | 57 | 40 | 0.0 | 1.0 | 0.00 | 0.00 | 0.00 | 40 | 1013.2 |
| 20260903100628 | 57 | 40 | 0.0 | 2.0 | 0.00 | 0.00 | 0.00 | 40 | 1013.2 |
| 20260903095632 | 56 | 40 | 0.0 | 2.0 | 0.00 | 0.00 | 0.00 | 41 | 1013.2 |
| 20260903094623 | 56 | 40 | 0.0 | 0.0 | 0.00 | 0.00 | 0.00 | 44 | 1013.2 |
| 20260903093616 | 57 | 40 | 0.0 | 4.0 | 0.00 | 0.00 | 0.00 | 43 | 1013.2 |
| 20260903092626 | 57 | 40 | 2.0 | 3.0 | 0.00 | 0.00 | 0.00 | 41 | 1013.3 |
| 20260903091617 | 58 | 40 | 0.0 | 2.0 | 0.00 | 0.00 | 0.00 | 40 | 1013.2 |
| 20260903090612 | 58 | 40 | 0.0 | 1.0 | 0.00 | 0.00 | 0.00 | 39 | 1013.1 |
| 20260903085613 | 58 | 40 | 0.0 | 0.0 | 0.00 | 0.00 | 0.00 | 38 | 1013.0 |
| 20260903084623 | 58 | 40 | 0.0 | 0.0 | 0.00 | 0.00 | 0.00 | 38 | 1013.0 |
| 20260903083636 | 58 | 40 | 0.0 | 3.0 | 0.00 | 0.00 | 0.00 | 38 | 1013.1 |
| 20260903082629 | 60 | 40 | 0.0 | 0.0 | 0.00 | 0.00 | 0.00 | 36 | 1013.1 |
| 20260903081619 | 60 | 40 | 0.0 | 1.0 | 0.00 | 0.00 | 0.00 | 36 | 1013.1 |
| 20260903080629 | 60 | 40 | 0.0 | 2.0 | 0.00 | 0.00 | 0.00 | 34 | 1013.1 |
| 20260903075612 | 60 | 40 | 0.0 | 2.0 | 0.00 | 0.00 | 0.00 | 35 | 1013.1 |
| 20260903074626 | 60 | 40 | 1.0 | 3.0 | 0.00 | 0.00 | 0.00 | 35 | 1013.0 |
| 20260903073616 | 60 | 39 | 1.0 | 5.0 | 0.00 | 0.00 | 0.00 | 36 | 1013.2 |
| 20260903072625 | 61 | 21 | 2.0 | 6.0 | 0.00 | 0.00 | 0.00 | 35 | 1013.1 |
| 20260903071615 | 60 | 28 | 3.0 | 5.0 | 0.00 | 0.00 | 0.00 | 34 | 1013.0 |
| 20260903070629 | 61 | 28 | 2.0 | 4.0 | 0.00 | 0.00 | 0.00 | 34 | 1012.9 |
| 20260903065630 | 61 | 26 | 2.0 | 6.0 | 0.00 | 0.00 | 0.00 | 34 | 1012.7 |
| 20260903064620 | 62 | 25 | 1.0 | 5.0 | 0.00 | 0.00 | 0.00 | 34 | 1012.9 |
| 20260903063613 | 62 | 21 | 1.0 | 5.0 | 0.00 | 0.00 | 0.00 | 32 | 1012.8 |
| 20260903062624 | 62 | 336 | 1.0 | 4.0 | 0.00 | 0.00 | 0.00 | 32 | 1012.6 |
| 20260903061615 | 62 | 342 | 2.0 | 4.0 | 0.00 | 0.00 | 0.00 | 31 | 1012.7 |
| 20260903060635 | 62 | 5 | 0.0 | 1.0 | 0.00 | 0.00 | 0.00 | 32 | 1012.7 |
| 20260903055616 | 63 | 5 | 0.0 | 4.0 | 0.00 | 0.00 | 0.00 | 31 | 1012.3 |
| 20260903054629 | 63 | 5 | 2.0 | 6.0 | 0.00 | 0.00 | 0.00 | 31 | 1012.3 |
| 20260903053620 | 63 | 5 | 2.0 | 9.0 | 0.00 | 0.00 | 0.00 | 31 | 1012.4 |
| 20260903052630 | 63 | 19 | 2.0 | 8.0 | 0.00 | 0.00 | 0.00 | 30 | 1012.5 |
| 20260903051621 | 63 | 360 | 2.0 | 10.0 | 0.00 | 0.00 | 0.00 | 30 | 1012.7 |
| 20260903050634 | 63 | 12 | 3.0 | 9.0 | 0.00 | 0.00 | 0.00 | 30 | 1012.7 |
| 20260903045615 | 63 | 10 | 3.0 | 8.0 | 0.00 | 0.00 | 0.00 | 30 | 1012.4 |
| 20260903044625 | 63 | 30 | 2.0 | 4.0 | 0.00 | 0.00 | 0.00 | 31 | 1012.7 |
| 20260903043615 | 63 | 13 | 1.0 | 4.0 | 0.00 | 0.00 | 0.00 | 32 | 1012.8 |
| 20260903042629 | 63 | 68 | 3.0 | 5.0 | 0.00 | 0.00 | 0.00 | 31 | 1012.1 |
| 20260903041639 | 64 | 11 | 2.0 | 4.0 | 0.00 | 0.00 | 0.00 | 30 | 1012.8 |
| 20260903040629 | 63 | 11 | 2.0 | 4.0 | 0.00 | 0.00 | 0.00 | 30 | 1012.7 |
| 20260903035613 | 64 | 49 | 1.0 | 6.0 | 0.00 | 0.00 | 0.00 | 30 | 1012.8 |
| 20260903034628 | 64 | 10 | 3.0 | 8.0 | 0.00 | 0.00 | 0.00 | 30 | 1012.6 |
| 20260903033619 | 64 | 355 | 4.0 | 9.0 | 0.00 | 0.00 | 0.00 | 31 | 1012.5 |
| 20260903032630 | 64 | 322 | 4.0 | 8.0 | 0.00 | 0.00 | 0.00 | 31 | 1012.6 |
| 20260903031621 | 65 | 360 | 4.0 | 9.0 | 0.00 | 0.00 | 0.00 | 31 | 1012.5 |
| 20260903030617 | 65 | 355 | 3.0 | 9.0 | 0.00 | 0.00 | 0.00 | 30 | 1012.7 |
| 20260903025621 | 65 | 5 | 3.0 | 9.0 | 0.00 | 0.00 | 0.00 | 29 | 1012.4 |
| 20260903024631 | 66 | 26 | 2.0 | 8.0 | 0.00 | 0.00 | 0.00 | 30 | 1012.3 |
| 20260903023622 | 67 | 337 | 2.0 | 5.0 | 0.00 | 0.00 | 0.00 | 30 | 1012.3 |
| 20260903022617 | 68 | 15 | 3.0 | 9.0 | 0.00 | 0.00 | 0.00 | 27 | 1012.1 |
| 20260903021628 | 69 | 355 | 1.0 | 5.0 | 0.00 | 0.00 | 0.00 | 26 | 1012.2 |
| 20260903020619 | 69 | 342 | 3.0 | 8.0 | 0.00 | 0.00 | 0.00 | 26 | 1011.9 |
| 20260903015626 | 69 | 328 | 1.0 | 8.0 | 0.00 | 0.00 | 0.00 | 26 | 1011.8 |
| 20260903014618 | 70 | 329 | 2.0 | 10.0 | 0.00 | 0.00 | 0.00 | 26 | 1011.7 |
| 20260903013629 | 71 | 344 | 3.0 | 8.0 | 0.00 | 0.00 | 0.00 | 24 | 1011.8 |
| 20260903012641 | 72 | 360 | 4.0 | 11.0 | 0.00 | 0.00 | 0.00 | 21 | 1011.4 |
| 20260903011615 | 73 | 308 | 2.0 | 9.0 | 0.00 | 0.00 | 0.00 | 20 | 1011.4 |
| 20260903010626 | 73 | 306 | 3.0 | 10.0 | 0.00 | 0.00 | 0.00 | 19 | 1011.5 |
| 20260903005629 | 74 | 320 | 3.0 | 9.0 | 0.00 | 0.00 | 0.00 | 19 | 1011.4 |
| 20260903004621 | 74 | 295 | 3.0 | 8.0 | 0.00 | 0.00 | 0.00 | 18 | 1011.4 |
| 20260903003616 | 75 | 290 | 1.0 | 4.0 | 0.00 | 0.00 | 0.00 | 15 | 1011.3 |
| 20260903002627 | 75 | 298 | 1.0 | 4.0 | 0.00 | 0.00 | 0.00 | 15 | 1011.3 |
| 20260903001619 | 75 | 297 | 1.0 | 4.0 | 0.00 | 0.00 | 0.00 | 15 | 1011.5 |
| 20260903000612 | 76 | 284 | 2.0 | 7.0 | 0.00 | 0.00 | 0.00 | 14 | 1011.3 |
| 20260902235619 | 77 | 301 | 1.0 | 4.0 | 0.00 | 0.00 | 0.00 | 12 | 1011.4 |
| 20260902234651 | 77 | 246 | 3.0 | 11.0 | 0.00 | 0.00 | 0.00 | 11 | 1011.7 |
| 20260902233641 | 77 | 260 | 5.0 | 14.0 | 0.00 | 0.00 | 0.00 | 11 | 1011.9 |
| 20260902232652 | 78 | 241 | 3.0 | 10.0 | 0.00 | 0.00 | 0.00 | 11 | 1011.9 |
| 20260902231626 | 78 | 238 | 3.0 | 14.0 | 0.00 | 0.00 | 0.00 | 11 | 1012.0 |
| 20260902230617 | 78 | 215 | 5.0 | 16.0 | 0.00 | 0.00 | 0.00 | 11 | 1012.1 |
| 20260902225620 | 78 | 229 | 5.0 | 14.0 | 0.00 | 0.00 | 0.00 | 11 | 1012.1 |
| 20260902224631 | 79 | 255 | 5.0 | 16.0 | 0.00 | 0.00 | 0.00 | 11 | 1012.1 |
| 20260902223627 | 79 | 219 | 7.0 | 17.0 | 0.00 | 0.00 | 0.00 | 12 | 1012.1 |
| 20260902222618 | 79 | 202 | 7.0 | 21.0 | 0.00 | 0.00 | 0.00 | 11 | 1012.1 |
| 20260902221630 | 79 | 239 | 10.0 | 16.0 | 0.00 | 0.00 | 0.00 | 10 | 1012.3 |
| 20260902220641 | 79 | 219 | 9.0 | 18.0 | 0.00 | 0.00 | 0.00 | 11 | 1012.2 |
| 20260902215627 | 79 | 190 | 7.0 | 16.0 | 0.00 | 0.00 | 0.00 | 11 | 1012.1 |
| 20260902214619 | 79 | 233 | 7.0 | 18.0 | 0.00 | 0.00 | 0.00 | 11 | 1012.1 |
| 20260902213630 | 79 | 215 | 11.0 | 21.0 | 0.00 | 0.00 | 0.00 | 10 | 1012.2 |
| 20260902212621 | 80 | 261 | 10.0 | 20.0 | 0.00 | 0.00 | 0.00 | 11 | 1012.2 |
| 20260902211616 | 80 | 220 | 7.0 | 17.0 | 0.00 | 0.00 | 0.00 | 11 | 1012.1 |
| 20260902210627 | 80 | 182 | 8.0 | 20.0 | 0.00 | 0.00 | 0.00 | 14 | 1012.1 |
| 20260902205630 | 80 | 246 | 10.0 | 15.0 | 0.00 | 0.00 | 0.00 | 11 | 1011.9 |
| 20260902204624 | 80 | 196 | 10.0 | 18.0 | 0.00 | 0.00 | 0.00 | 11 | 1012.1 |
| 20260902203614 | 80 | 245 | 11.0 | 19.0 | 0.00 | 0.00 | 0.00 | 11 | 1012.1 |
| 20260902202626 | 79 | 232 | 8.0 | 20.0 | 0.00 | 0.00 | 0.00 | 11 | 1012.2 |
| 20260902201617 | 78 | 206 | 9.0 | 18.0 | 0.00 | 0.00 | 0.00 | 12 | 1012.4 |
| 20260902200629 | 79 | 182 | 11.0 | 19.0 | 0.00 | 0.00 | 0.00 | 13 | 1012.4 |
| 20260902195631 | 79 | 181 | 9.0 | 17.0 | 0.00 | 0.00 | 0.00 | 11 | 1012.5 |
| 20260902194642 | 79 | 296 | 10.0 | 17.0 | 0.00 | 0.00 | 0.00 | 11 | 1012.6 |
| 20260902193628 | 79 | 214 | 10.0 | 17.0 | 0.00 | 0.00 | 0.00 | 11 | 1012.7 |
| 20260902192623 | 79 | 211 | 9.0 | 18.0 | 0.00 | 0.00 | 0.00 | 12 | 1012.9 |
| 20260902191614 | 78 | 227 | 9.0 | 18.0 | 0.00 | 0.00 | 0.00 | 15 | 1013.0 |
| 20260902190626 | 78 | 157 | 9.0 | 21.0 | 0.00 | 0.00 | 0.00 | 15 | 1013.0 |
| 20260902185647 | 77 | 194 | 10.0 | 16.0 | 0.00 | 0.00 | 0.00 | 15 | 1013.2 |
| 20260902184642 | 77 | 218 | 7.0 | 18.0 | 0.00 | 0.00 | 0.00 | 13 | 1013.1 |
| 20260902183615 | 78 | 211 | 10.0 | 22.0 | 0.00 | 0.00 | 0.00 | 13 | 1013.2 |
| 20260902182624 | 78 | 260 | 7.0 | 20.0 | 0.00 | 0.00 | 0.00 | 13 | 1013.2 |
| 20260902181616 | 78 | 241 | 7.0 | 16.0 | 0.00 | 0.00 | 0.00 | 15 | 1013.2 |
| 20260902180615 | 77 | 186 | 7.0 | 16.0 | 0.00 | 0.00 | 0.00 | 14 | 1013.3 |
| 20260902175621 | 77 | 181 | 9.0 | 12.0 | 0.00 | 0.00 | 0.00 | 13 | 1013.4 |
| 20260902174650 | 77 | 192 | 7.0 | 11.0 | 0.00 | 0.00 | 0.00 | 13 | 1013.4 |
| 20260902173638 | 76 | 249 | 6.0 | 11.0 | 0.00 | 0.00 | 0.00 | 14 | 1013.3 |
| 20260902172625 | 76 | 240 | 5.0 | 18.0 | 0.00 | 0.00 | 0.00 | 15 | 1013.3 |
| 20260902171614 | 76 | 170 | 7.0 | 15.0 | 0.00 | 0.00 | 0.00 | 15 | 1013.4 |
| 20260902170650 | 75 | 205 | 6.0 | 13.0 | 0.00 | 0.00 | 0.00 | 16 | 1013.2 |
| 20260902165652 | 74 | 213 | 8.0 | 15.0 | 0.00 | 0.00 | 0.00 | 18 | 1013.2 |
| 20260902164622 | 74 | 173 | 7.0 | 12.0 | 0.00 | 0.00 | 0.00 | 20 | 1013.1 |
| 20260902163612 | 73 | 174 | 6.0 | 13.0 | 0.00 | 0.00 | 0.00 | 22 | 1013.1 |
| 20260902162626 | 73 | 238 | 6.0 | 10.0 | 0.00 | 0.00 | 0.00 | 24 | 1013.3 |
| 20260902161616 | 72 | 226 | 4.0 | 10.0 | 0.00 | 0.00 | 0.00 | 23 | 1013.2 |
| 20260902160624 | 71 | 193 | 5.0 | 9.0 | 0.00 | 0.00 | 0.00 | 23 | 1013.2 |
| 20260902155627 | 71 | 230 | 5.0 | 8.0 | 0.00 | 0.00 | 0.00 | 27 | 1013.2 |
| 20260902154622 | 70 | 184 | 4.0 | 6.0 | 0.00 | 0.00 | 0.00 | 28 | 1013.2 |
| 20260902153612 | 70 | 237 | 3.0 | 7.0 | 0.00 | 0.00 | 0.00 | 28 | 1013.2 |
| 20260902152621 | 69 | 184 | 4.0 | 8.0 | 0.00 | 0.00 | 0.00 | 29 | 1013.2 |
| 20260902151621 | 68 | 238 | 3.0 | 8.0 | 0.00 | 0.00 | 0.00 | 31 | 1013.3 |
| 20260902150613 | 68 | 213 | 3.0 | 10.0 | 0.00 | 0.00 | 0.00 | 34 | 1013.2 |
| 20260902145614 | 67 | 201 | 4.0 | 10.0 | 0.00 | 0.00 | 0.00 | 35 | 1013.0 |
| 20260902144643 | 66 | 202 | 5.0 | 7.0 | 0.00 | 0.00 | 0.00 | 38 | 1012.9 |
| 20260902143613 | 66 | 194 | 3.0 | 7.0 | 0.00 | 0.00 | 0.00 | 41 | 1012.7 |
| 20260902142626 | 65 | 202 | 3.0 | 8.0 | 0.00 | 0.00 | 0.00 | 42 | 1012.6 |
| 20260902141614 | 65 | 195 | 4.0 | 7.0 | 0.00 | 0.00 | 0.00 | 44 | 1012.4 |
| 20260902140629 | 65 | 198 | 4.0 | 6.0 | 0.00 | 0.00 | 0.00 | 43 | 1012.3 |
| 20260902135630 | 65 | 188 | 5.0 | 9.0 | 0.00 | 0.00 | 0.00 | 40 | 1012.2 |
| 20260902134622 | 63 | 179 | 3.0 | 10.0 | 0.00 | 0.00 | 0.00 | 45 | 1012.1 |
| 20260902133651 | 61 | 190 | 2.0 | 3.0 | 0.00 | 0.00 | 0.00 | 48 | 1012.1 |
| 20260902132616 | 60 | 91 | 2.0 | 4.0 | 0.00 | 0.00 | 0.00 | 50 | 1012.0 |
| 20260902131629 | 60 | 88 | 0.0 | 0.0 | 0.00 | 0.00 | 0.00 | 51 | 1011.9 |
| 20260902130628 | 60 | 88 | 0.0 | 2.0 | 0.00 | 0.00 | 0.00 | 52 | 1011.7 |
| 20260902125613 | 61 | 88 | 0.0 | 2.0 | 0.00 | 0.00 | 0.00 | 52 | 1011.6 |
| 20260902124623 | 62 | 88 | 1.0 | 3.0 | 0.00 | 0.00 | 0.00 | 51 | 1011.4 |
| 20260902123650 | 62 | 245 | 0.0 | 1.0 | 0.00 | 0.00 | 0.00 | 52 | 1011.3 |
| 20260902122629 | 63 | 245 | 0.0 | 3.0 | 0.00 | 0.00 | 0.00 | 51 | 1011.3 |
| 20260902121618 | 65 | 217 | 1.0 | 3.0 | 0.00 | 0.00 | 0.00 | 49 | 1011.1 |
| 20260902120629 | 67 | 217 | 1.0 | 5.0 | 0.00 | 0.00 | 0.00 | 46 | 1011.1 |
| 20260902115612 | 67 | 198 | 2.0 | 5.0 | 0.00 | 0.00 | 0.00 | 45 | 1011.0 |
| 20260902114623 | 68 | 204 | 2.0 | 6.0 | 0.00 | 0.00 | 0.00 | 44 | 1011.0 |
| 20260902113619 | 68 | 208 | 3.0 | 9.0 | 0.00 | 0.00 | 0.00 | 45 | 1010.8 |
| 20260902112630 | 67 | 176 | 5.0 | 8.0 | 0.00 | 0.00 | 0.00 | 45 | 1011.0 |
| 20260902111622 | 68 | 181 | 4.0 | 13.0 | 0.00 | 0.00 | 0.00 | 44 | 1011.0 |
| 20260902110612 | 68 | 175 | 6.0 | 13.0 | 0.00 | 0.00 | 0.00 | 43 | 1010.9 |
| 20260902105620 | 68 | 194 | 5.0 | 9.0 | 0.00 | 0.00 | 0.00 | 45 | 1011.0 |
| 20260902104631 | 68 | 208 | 6.0 | 11.0 | 0.00 | 0.00 | 0.00 | 46 | 1010.9 |
| 20260902103622 | 67 | 200 | 5.0 | 9.0 | 0.00 | 0.00 | 0.00 | 47 | 1010.9 |